SL-12 R/B(2), 29673

Orbit data source: Space-Track

SL-12 R/B(2), 29673 is space debris in MEO originally from a launch on Mon, 25 Dec 2006 UTC launched from the Tyuratam Missile And Space Complex (TTMTR). Debris objects in space refer to the collection of defunct objects orbiting the Earth. Examples of debris include non-operational satellites, rocket bodies, and fragments generated from explosions, collisions, or faulty payload assembly.

Loading next visibility...
Identifier
29673, 2006-062D
Orbit
MEO
Country
Flag of CISCIS
Related business
Manufacturer
RKKE
Mission
Spacecraft
Bus & Motor
BLOK DM2, 11D58M
Mass
2,440 kg wet, 2,440 kg dry
Launch date (UTC)
2006-12-25 (19 years ago)
Launch vehicle
Unknown
Launch site
Tyuratam Missile And Space Complex (TTMTR)
Object type
Payload
Rocket body
Debris
Shape & HBR
Cyl, 3.1 m
Radar Cross Section
23.684 m², Large (>1 m²)

Expand to show TLE details & history
Last TLE update: 5 days ago

TLE from 5 days ago
0 SL-12 R/B(2)
1 29673U 06062D   25299.64493933  .00000020  00000-0  00000-0 0  9991
2 29673  64.7009 201.4094 0027347 191.8738 326.8874  2.13404213147005
Epoch: 2025-10-26T15:28Z
TLE epoch observation values (Epoch: 2025-10-26T15:28:42.758Z)
Latitude
19.31193°
Longitude
104.46103°
Altitude
19,047.835 km
Speed
3.964 km/s
True Right ascension
00h 47m 35s
True Declination
19° 16' 55"
Sunlit
Object was in daylight at epoch
Visualization orbit readout
Latitude
Unknown
Longitude
Unknown
Altitude
Unknown
Speed
Unknown
Apparent Right ascension
Unknown
Apparent Declination
Unknown
Sunlit
N/A
Visualization observer readout
Local Sidereal Time
00:36:36
Azimuth
Unknown
Elevation
Unknown
Doppler factor
Unknown
Orbital elements
Apogee altitude
19,175.114 km
Perigee altitude
19,035.735 km
Semi-major axis
25,483.562 km
Eccentricity
0.00273
Inclination
64.7009°
RAAN
201.4094°
Arg. of periapsis
191.8738°
True anomaly
326.71572°
Mean anomaly
326.8874°
Eccentric anomaly
326.80161°
Mean motion
0.53352 °/min
Orbital period
674.76 mins
BSTAR
0
Loading maneuver chart data...
Computing Atmospheric mass density...
Loading historical data...
Loading historical data...
Loading historical data...
Loading historical data...
Loading historical data...
Loading historical data...
Loading historical data...

Documentation

Showing up to 5 results
|